Tracking 28790 objects as of 19-Apr-2024
HD Live streaming from Space Station
objects crossing your sky now

THORAD AGENA D DEB

Track THORAD AGENA D DEB now!
10-day predictions


NORAD ID: 4217
Int'l Code: 1969-082CG
Perigee: 747.5 km
Apogee: 795.1 km
Inclination: 70.0 °
Period: 100.1 minutes
Semi major axis: 7142 km
RCS: 0.5941 m2 (medium)
Launch date: September 30, 1969
Source: United States (US)
Launch site: AIR FORCE WESTERN TEST RANGE (AFWTR)

Note: This is SATELLITE DEBRIS
Your satellite tracking list
Your tracking list is empty




NASA's NSSDC Master Catalog

Two Line Element Set (TLE):
1 04217U 69082CG  24109.55313965  .00002864  00000-0  95298-3 0  9998
2 04217  70.0397 162.9712 0033332  41.4631 318.9017 14.38299230834086
Source of the keplerian elements: AFSPC